Location: Baia Mare
(47.6567°N, 23.5850°E)
Time: 06:36:05
(UTC+03:00)

ISS - Pass Details

Date: 20 March 2020
Orbit: 417 x 423 km, 51.6° (Epoch: 29 March)

Event Time Altitude Azimuth Distance (km) Brightness Sun altitude
Rises 20:46:03 0° 244° (WSW) 2,352 0.6 -21.5°
Reaches altitude 10° 20:48:08 10° 244° (WSW) 1,491 -0.5 -21.8°
Enters shadow 20:50:31 43° 244° (WSW) 595 -2.8 -22.2°
